Home   Weather   Gothenburg   Past weeks

Flag for Sweden Past Weather in Gothenburg, Sweden — Yesterday and Last 2 Weeks

Now
46 °F

Passing clouds.


Feels Like: 39 °F
Forecast: 44 / 47 °F
Wind: 17 mph from West

Location: Gothenburg / Save

Current Time: Dec 9, 2016 at 7:09:41 am

Latest Report: Dec 9, 2016 at 6:20 am


Visibility: N/A

Pressure: 29.83 "Hg

Humidity: 87%

Dew Point: 43 °F

Location of GothenburgLocation

Past Weather in Gothenburg — Graph

°F

Gothenburg Temperature Yesterday

Maximum temperature yesterday: 50 °F (at 12:50 am)
Minimum temperature yesterday: 45 °F (at 8:20 pm)
Average temperature yesterday: 48 °F

High & Low Weather Summary for the Past Weeks

 TemperatureHumidityPressure
High50 °F (Dec 8, 12:50 am)100% (Nov 24, 10:50 pm)30.45 "Hg (Nov 24, 10:50 pm)
Low18 °F (Dec 3, 7:50 am)42% (Nov 27, 2:50 pm)29.53 "Hg (Dec 1, 3:20 pm)
Average37 °F81%30.05 "Hg
* Reported Nov 24 5:20 am — Dec 9 5:20 am, Gothenburg, Weather by CustomWeather, © 2016

Note: Actual official high and low records may vary slightly from our data, if they occured in-between our weather recording intervals... More about our weather records

Advertising

Gothenburg Weather History for the Previous 24 Hours

Scroll right to see more
 ConditionsComfort  
Time TempWeatherWind HumidityBarometerVisibility
5:20 am
Fri, Dec 9
46 °FPassing clouds.14 mph87%29.83 "HgN/A
4:50 am48 °FPassing clouds.15 mph82%29.83 "HgN/A
4:20 am48 °FPassing clouds.15 mph82%29.86 "HgN/A
3:50 am46 °FPassing clouds.13 mph87%29.86 "HgN/A
3:20 am46 °FPassing clouds.10 mph87%29.86 "HgN/A
2:50 am46 °FFog.8 mph87%29.89 "Hg6 mi
2:20 am46 °FFog.8 mph87%29.89 "Hg6 mi
1:50 am46 °FFog.8 mph87%29.89 "Hg5 mi
1:20 am46 °FFog.12 mph87%29.89 "Hg5 mi
12:50 am46 °FFog.8 mph87%29.92 "Hg5 mi
12:20 am46 °FFog.7 mph87%29.92 "Hg5 mi
11:50 pm
Thu, Dec 8
46 °FFog.10 mph87%29.92 "Hg5 mi
11:20 pm45 °FFog.13 mph93%29.89 "Hg5 mi
10:50 pm45 °FFog.12 mph93%29.89 "Hg5 mi
10:20 pm45 °FFog.9 mph93%29.89 "Hg5 mi
9:50 pm45 °FFog.10 mph93%29.89 "Hg4 mi
9:20 pm45 °FFog.9 mph93%29.89 "Hg5 mi
8:50 pm45 °FFog.9 mph93%29.89 "Hg5 mi
8:20 pm45 °FFog.No wind93%29.89 "Hg5 mi
7:50 pm46 °FFog.10 mph87%29.89 "Hg6 mi
7:20 pm46 °FClear.12 mph87%29.89 "Hg10 mi
6:50 pm46 °FClear.13 mph87%29.86 "Hg10 mi
6:20 pm46 °FClear.10 mph87%29.86 "Hg10 mi
5:50 pm46 °FClear.9 mph87%29.86 "Hg10 mi
5:20 pm48 °FFog.16 mph82%29.83 "Hg6 mi
4:50 pm48 °FFog.17 mph82%29.83 "Hg6 mi
4:20 pm48 °FFog.17 mph82%29.83 "Hg6 mi
3:50 pm48 °FFog.16 mph82%29.83 "Hg6 mi
3:20 pm48 °FFog.17 mph87%29.83 "Hg6 mi
2:50 pm48 °FFog.20 mph87%29.83 "Hg6 mi
2:20 pm48 °FFog.20 mph87%29.80 "Hg6 mi
1:50 pm48 °FFog.20 mph87%29.80 "Hg6 mi
1:20 pm48 °FFog.18 mph87%29.80 "Hg6 mi
12:50 pm48 °FFog.23 mph87%29.80 "Hg6 mi
12:20 pm48 °FFog.20 mph87%29.80 "Hg6 mi
11:50 am48 °FFog.17 mph87%29.80 "Hg6 mi
11:20 am48 °FFog.13 mph87%29.80 "Hg6 mi
10:50 am48 °FPassing clouds.15 mph87%29.80 "HgN/A
10:20 am48 °FFog.9 mph87%29.80 "HgN/A
9:50 am48 °FFog.10 mph94%29.77 "Hg5 mi
9:20 am48 °FFog.9 mph94%29.77 "Hg5 mi
8:50 am48 °FLight rain. Low clouds.9 mph94%29.80 "Hg4 mi
8:20 am48 °FFog.16 mph94%29.77 "Hg4 mi
7:50 am48 °FFog.14 mph94%29.77 "Hg4 mi
7:20 am50 °FFog.14 mph94%29.74 "Hg6 mi
Weather by CustomWeather, © 2016

See weather overviewHow to use our weather pages